Buffalo, MN

4:18 PM CST on December 05, 2019 (GMT -0600)
Buffalo

Weather History for KCFE - October, 2019

Change the Weather History Date:

Wednesday, October 23, 2019

  Actual Average (KMIC) Record (KMIC)
Temperature  
Mean Temperature 38 °F -  
Max Temperature 44 °F 52 °F 72 °F (1993)
Min Temperature 31 °F 35 °F 23 °F (2006)
Degree Days  
Heating Degree Days 28    
Moisture  
Dew Point 31 °F    
Average Humidity 76    
Maximum Humidity 92    
Minimum Humidity 61    
Precipitation  
Precipitation 0.00 in - - ()
Sea Level Pressure  
Sea Level Pressure 29.91 in    
Wind  
Wind Speed - (North)    
Max Wind Speed -    
Max Gust Speed -    
Visibility 10 miles    
Events      
Averages and records for this station are not official NWS values.
T = Trace of Precipitation, MM = Missing Value Source: NWS Daily Summary

Daily Weather History Graph

Daily Weather History Graph

Search for Another Location

Airport or City:

Astronomy

Oct. 23, 2019 Rise Set
Actual Time 7:41 AM CDT 6:17 PM CDT
Civil Twilight 7:11 AM CDT 6:47 PM CDT
Nautical Twilight 6:37 AM CDT 7:21 PM CDT
Astronomical Twilight 6:03 AM CDT 7:55 PM CDT
Moon 1:40 AM CDT (10/23) 4:26 PM CDT (10/23)
Length of Visible Light 11h 35m
Length of Day
10h 35m
Waning Crescent, 26% of the Moon is Illuminated
Oct 23
Waning Crescent
Oct 27
New
Nov 4
First Quarter
Nov 12
Full
Nov 19
Last Quarter

Hourly Weather History & Observations

Time (CDT) Temp. Dew Point Humidity Pressure Visibility Wind Dir Wind Speed Gust Speed Precip Events Conditions
12:15 AM 39.2 °F 32.0 °F 75% 29.72 in 10.0 mi North - - N/A   Clear
12:55 AM 37.9 °F 31.3 °F 77% 29.71 in 10.0 mi North - - N/A   Clear
1:15 AM 37.4 °F 31.1 °F 78% 29.71 in 10.0 mi North - - N/A   Clear
1:35 AM 37.4 °F 31.6 °F 80% 29.72 in 10.0 mi North - - N/A   Clear
1:55 AM 37.4 °F 31.8 °F 80% 29.72 in 10.0 mi North - - N/A   Clear
2:15 AM 36.5 °F 31.5 °F 82% 29.72 in 10.0 mi North - - N/A   Clear
2:16 AM 36.3 °F 31.5 °F 83% 29.72 in 10.0 mi North - - N/A   Clear
2:35 AM 35.2 °F 31.5 °F 86% 29.74 in 10.0 mi North - - N/A   Clear
2:55 AM 34.7 °F 31.1 °F 87% 29.74 in 10.0 mi North - - N/A   Clear
2:56 AM 34.7 °F 31.1 °F 87% 29.74 in 10.0 mi North - - N/A   Clear
3:15 AM 34.5 °F 31.1 °F 87% 29.74 in 10.0 mi North - - N/A   Clear
3:35 AM 34.3 °F 30.9 °F 87% 29.75 in 10.0 mi North - - N/A   Clear
3:55 AM 34.0 °F 30.7 °F 88% 29.76 in 10.0 mi North - - N/A   Clear
3:56 AM 34.0 °F 30.7 °F 88% 29.76 in 10.0 mi North - - N/A   Clear
4:15 AM 34.2 °F 30.6 °F 87% 29.76 in 10.0 mi North - - N/A   Clear
4:16 AM 34.2 °F 30.6 °F 87% 29.76 in 10.0 mi North - - N/A   Clear
4:35 AM 33.8 °F 30.6 °F 88% 29.77 in 10.0 mi North - - N/A   Clear
4:55 AM 33.8 °F 30.6 °F 88% 29.78 in 10.0 mi North - - N/A   Clear
4:56 AM 33.8 °F 30.7 °F 89% 29.78 in 10.0 mi North - - N/A   Clear
5:15 AM 33.8 °F 30.7 °F 89% 29.79 in 10.0 mi North - - N/A   Clear
5:16 AM 33.8 °F 30.7 °F 89% 29.79 in 10.0 mi North - - N/A   Clear
5:35 AM 33.8 °F 30.7 °F 89% 29.80 in 10.0 mi North - - N/A   Clear
5:55 AM 33.8 °F 30.9 °F 89% 29.80 in 10.0 mi North - - N/A   Clear
6:15 AM 33.1 °F 30.4 °F 90% 29.81 in 10.0 mi North - - N/A   Clear
6:16 AM 33.1 °F 30.2 °F 89% 29.81 in 10.0 mi North - - N/A   Clear
6:35 AM 32.4 °F 30.0 °F 91% 29.81 in 10.0 mi North - - N/A   Clear
6:55 AM 32.0 °F 30.0 °F 92% 29.81 in 10.0 mi North - - N/A   Clear
7:15 AM 32.0 °F 30.0 °F 92% 29.81 in 10.0 mi North - - N/A   Clear
7:16 AM 32.0 °F 30.0 °F 92% 29.81 in 10.0 mi North - - N/A   Clear
7:35 AM 32.0 °F 29.7 °F 91% 29.82 in 10.0 mi North - - N/A   Clear
7:36 AM 32.0 °F 29.7 °F 91% 29.82 in 10.0 mi North - - N/A   Clear
7:55 AM 31.8 °F 29.5 °F 91% 29.83 in 10.0 mi North - - N/A   Clear
7:56 AM 31.8 °F 29.5 °F 91% 29.83 in 10.0 mi North - - N/A   Clear
8:15 AM 32.0 °F 29.8 °F 92% 29.84 in 10.0 mi North - - N/A   Clear
8:16 AM 32.0 °F 29.8 °F 92% 29.84 in 10.0 mi North - - N/A   Clear
8:35 AM 32.0 °F 29.8 °F 92% 29.85 in 10.0 mi North - - N/A   Clear
8:55 AM 33.8 °F 30.7 °F 89% 29.85 in 10.0 mi North - - N/A   Clear
8:56 AM 33.8 °F 30.6 °F 88% 29.85 in 10.0 mi North - - N/A   Clear
9:15 AM 34.5 °F 30.6 °F 85% 29.85 in 10.0 mi North - - N/A   Clear
9:35 AM 35.6 °F 30.9 °F 83% 29.87 in 10.0 mi North - - N/A   Clear
9:55 AM 36.1 °F 31.1 °F 82% 29.87 in 10.0 mi North - - N/A   Clear
9:56 AM 36.1 °F 31.3 °F 83% 29.87 in 10.0 mi North - - N/A   Clear
10:15 AM 36.7 °F 31.5 °F 81% 29.88 in 10.0 mi North - - N/A   Mostly Cloudy
10:16 AM 36.7 °F 31.3 °F 81% 29.88 in 10.0 mi North - - N/A   Mostly Cloudy
10:35 AM 37.4 °F 31.1 °F 78% 29.88 in 10.0 mi North - - N/A   Mostly Cloudy
10:55 AM 38.3 °F 31.6 °F 77% 29.89 in 10.0 mi North - - N/A   Scattered Clouds
11:15 AM 39.7 °F 31.8 °F 73% 29.89 in 10.0 mi North - - N/A   Scattered Clouds
11:55 AM 39.6 °F 31.6 °F 73% 29.90 in 10.0 mi North - - N/A   Clear
12:15 PM 41.0 °F 31.8 °F 70% 29.90 in 10.0 mi North - - N/A   Clear
12:35 PM 41.9 °F 32.0 °F 68% 29.91 in 10.0 mi North - - N/A   Clear
12:55 PM 42.1 °F 32.2 °F 68% 29.90 in 10.0 mi North - - N/A   Scattered Clouds
1:15 PM 43.0 °F 32.2 °F 66% 29.90 in 10.0 mi North - - N/A   Clear
1:35 PM 43.2 °F 32.2 °F 65% 29.90 in 10.0 mi North - - N/A   Clear
1:55 PM 43.0 °F 32.0 °F 65% 29.90 in 10.0 mi North - - N/A   Clear
1:56 PM 43.0 °F 32.0 °F 65% 29.90 in 10.0 mi North - - N/A   Clear
2:15 PM 43.7 °F 32.4 °F 64% 29.91 in 10.0 mi North - - N/A   Clear
2:16 PM 43.7 °F 32.4 °F 64% 29.91 in 10.0 mi North - - N/A   Clear
2:35 PM 43.7 °F 32.0 °F 63% 29.91 in 10.0 mi North - - N/A   Clear
2:55 PM 44.6 °F 32.2 °F 62% 29.92 in 10.0 mi North - - N/A   Scattered Clouds
3:15 PM 44.1 °F 32.0 °F 63% 29.93 in 10.0 mi North - - N/A   Scattered Clouds
3:35 PM 44.4 °F 32.0 °F 62% 29.94 in 10.0 mi North - - N/A   Mostly Cloudy
3:36 PM 44.4 °F 32.0 °F 62% 29.94 in 10.0 mi North - - N/A   Mostly Cloudy
3:55 PM 44.1 °F 32.0 °F 63% 29.95 in 10.0 mi North - - N/A   Mostly Cloudy
4:15 PM 44.6 °F 32.0 °F 61% 29.95 in 10.0 mi North - - N/A   Overcast
4:35 PM 43.9 °F 31.8 °F 63% 29.96 in 10.0 mi North - - N/A   Overcast
4:36 PM 43.9 °F 31.8 °F 63% 29.96 in 10.0 mi North - - N/A   Overcast
4:55 PM 43.3 °F 31.8 °F 64% 29.98 in 10.0 mi North - - N/A   Overcast
5:15 PM 42.8 °F 31.5 °F 64% 29.99 in 10.0 mi North - - N/A   Overcast
5:35 PM 41.9 °F 30.7 °F 65% 30.00 in 10.0 mi North - - N/A   Overcast
5:36 PM 41.9 °F 30.7 °F 65% 30.00 in 10.0 mi North - - N/A   Overcast
5:55 PM 41.5 °F 30.7 °F 65% 30.01 in 10.0 mi North - - N/A   Overcast
6:15 PM 41.0 °F 30.4 °F 66% 30.02 in 10.0 mi North - - N/A   Overcast
6:35 PM 41.0 °F 30.4 °F 66% 30.04 in 10.0 mi North - - N/A   Overcast
6:36 PM 41.0 °F 30.4 °F 66% 30.04 in 10.0 mi North - - N/A   Overcast
6:55 PM 41.0 °F 30.0 °F 65% 30.05 in 10.0 mi North - - N/A   Overcast
7:15 PM 41.0 °F 30.6 °F 66% 30.06 in 10.0 mi North - - N/A   Overcast
7:16 PM 41.0 °F 30.4 °F 66% 30.06 in 10.0 mi North - - N/A   Overcast
7:35 PM 40.6 °F 30.7 °F 68% 30.06 in 10.0 mi North - - N/A   Mostly Cloudy
7:55 PM 40.8 °F 31.1 °F 68% 30.08 in 10.0 mi North - - N/A   Overcast
8:15 PM 40.5 °F 30.9 °F 69% 30.09 in 10.0 mi North - - N/A   Overcast
8:35 PM 40.3 °F 30.9 °F 69% 30.09 in 10.0 mi North - - N/A   Overcast
8:36 PM 40.3 °F 30.9 °F 69% 30.10 in 10.0 mi North - - N/A   Overcast
8:55 PM 40.1 °F 31.1 °F 70% 30.11 in 10.0 mi North - - N/A   Overcast
9:15 PM 40.1 °F 31.1 °F 70% 30.11 in 10.0 mi North - - N/A   Overcast
9:35 PM 39.9 °F 31.1 °F 71% 30.12 in 10.0 mi North - - N/A   Overcast
9:36 PM 39.9 °F 31.3 °F 71% 30.12 in 10.0 mi North - - N/A   Overcast
9:55 PM 39.7 °F 31.1 °F 71% 30.13 in 10.0 mi North - - N/A   Overcast
10:15 PM 39.7 °F 30.7 °F 70% 30.13 in 10.0 mi North - - N/A   Overcast
10:35 PM 39.6 °F 30.0 °F 69% 30.14 in 10.0 mi North - - N/A   Overcast
10:36 PM 39.6 °F 30.0 °F 69% 30.14 in 10.0 mi North - - N/A   Overcast
10:55 PM 39.6 °F 30.0 °F 69% 30.15 in 10.0 mi North - - N/A   Overcast
11:15 PM 39.2 °F 30.7 °F 72% 30.16 in 10.0 mi North - - N/A   Overcast
11:35 PM 39.2 °F 31.1 °F 73% 30.16 in 10.0 mi North - - N/A   Overcast
11:55 PM 38.7 °F 30.7 °F 73% 30.17 in 10.0 mi North - - N/A   Overcast